Weather History for Hurlburt Field, FL

Change the Weather History Date:

Sunday, September 16, 2012

  Actual Average Record
Temperature  
Mean Temperature 78 °F -  
Max Temperature 86 °F 85 °F 93 °F (1997)
Min Temperature 70 °F 68 °F 59 °F (1999)
Cooling Degree Days 13    
Growing Degree Days 28 (Base 50)    
Moisture  
Dew Point 74 °F    
Average Humidity 81    
Maximum Humidity 99    
Minimum Humidity 66    
Precipitation  
Precipitation 0.00 in - - ()
Sea Level Pressure  
Sea Level Pressure 30.02 in    
Wind  
Wind Speed 4 mph (ESE)    
Max Wind Speed 14 mph    
Max Gust Speed -    
Visibility 10 miles    
Events Rain    
Averages and records for this station are not official NWS values.
T = Trace of Precipitation, MM = Missing Value Source: NWS Daily Summary

Daily Weather History Graph

Daily Weather History Graph

Search for Another Location

Airport:

Trip Planner

Search our weather history database for the weather conditions in past years. The results will help you decide how hot, cold, wet, or windy it might be!

Date:

Astronomy

Sep. 16, 2012 Rise Set
Actual Time 6:32 AM CDT 6:50 PM CDT
Civil Twilight 6:07 AM CDT 7:14 PM CDT
Nautical Twilight 5:39 AM CDT 7:42 PM CDT
Astronomical Twilight 5:11 AM CDT 8:10 PM CDT
Moon 7:03 AM CDT (9/16) 7:04 PM CDT (9/16)
Length of Visible Light 13h 06m
Length of Day
12h 18m
New Moon, 0% of the Moon is Illuminated
Sep 16
New Moon
Sep 22
First Quarter
Sep 29
Full
Oct 8
Last Quarter
Oct 15
New

Hourly Weather History & Observations

Time (CDT) Temp. Heat Index Dew Point Humidity Pressure Visibility Wind Dir Wind Speed Gust Speed Precip Events Conditions
12:55 AM 72.3 °F - 71.4 °F 97% 30.06 in 10.0 mi Calm Calm - 0.00 in   Clear
1:55 AM 72.0 °F - 71.4 °F 98% 30.05 in 10.0 mi Calm Calm - N/A   Clear
2:55 AM 72.3 °F - 71.6 °F 98% 30.03 in 10.0 mi Calm Calm - N/A   Clear
3:55 AM 71.4 °F - 71.1 °F 99% 30.03 in 10.0 mi North 4.6 mph - N/A   Clear
4:55 AM 71.2 °F - 70.5 °F 98% 30.02 in 10.0 mi Calm Calm - N/A   Clear
5:55 AM 70.9 °F - 70.3 °F 98% 30.03 in 10.0 mi Calm Calm - N/A   Clear
6:55 AM 70.9 °F - 70.3 °F 98% 30.04 in 10.0 mi Calm Calm - N/A   Clear
7:55 AM 75.4 °F - 72.1 °F 90% 30.04 in 10.0 mi NE 3.5 mph - N/A   Clear
8:55 AM 79.9 °F - 72.7 °F 79% 30.06 in 10.0 mi ENE 5.8 mph - N/A   Clear
9:54 AM 82.4 °F 88.2 °F 73.4 °F 74% 30.06 in 10.0 mi East 5.8 mph - N/A   Light Drizzle
9:55 AM 82.6 °F 88.8 °F 74.1 °F 75% 30.06 in 10.0 mi East 4.6 mph - 0.00 in   Light Drizzle
10:34 AM 84.2 °F 90.9 °F 73.4 °F 70% 30.06 in 10.0 mi ENE 5.8 mph - N/A   Clear
10:55 AM 85.1 °F 91.5 °F 72.7 °F 66% 30.05 in 10.0 mi East 8.1 mph - 0.00 in   Partly Cloudy
11:02 AM 84.2 °F 90.9 °F 73.4 °F 70% 30.05 in 10.0 mi Variable 5.8 mph - N/A   Light Drizzle
11:12 AM 86.0 °F 93.4 °F 73.4 °F 66% 30.05 in 10.0 mi East 4.6 mph - N/A   Scattered Clouds
11:13 AM 86.0 °F 93.4 °F 73.4 °F 66% 30.05 in 10.0 mi Variable 4.6 mph - N/A Rain Light Rain
11:17 AM 86.0 °F 93.4 °F 73.4 °F 66% 30.05 in 10.0 mi SE 8.1 mph - N/A   Scattered Clouds
11:55 AM 85.1 °F 94.9 °F 76.3 °F 75% 30.05 in 10.0 mi SSE 11.5 mph - 0.00 in   Partly Cloudy
12:34 PM 84.2 °F 94.1 °F 77.0 °F 79% 30.04 in 10.0 mi SSE 12.7 mph - N/A   Light Drizzle
12:38 PM 86.0 °F 96.9 °F 77.0 °F 74% 30.04 in 10.0 mi SSE 12.7 mph - N/A   Clear
12:55 PM 85.1 °F 94.1 °F 75.7 °F 73% 30.04 in 10.0 mi SSE 13.8 mph - 0.00 in   Clear
1:55 PM 85.3 °F 95.0 °F 76.1 °F 74% 30.01 in 10.0 mi SSE 13.8 mph - N/A   Clear
2:55 PM 84.4 °F 93.5 °F 75.9 °F 76% 29.99 in 10.0 mi SSE 11.5 mph - N/A   Scattered Clouds
3:55 PM 84.2 °F 92.3 °F 75.2 °F 74% 29.98 in 10.0 mi SE 11.5 mph - N/A   Partly Cloudy
4:55 PM 84.0 °F 91.9 °F 74.8 °F 74% 29.98 in 10.0 mi SSE 10.4 mph - N/A   Scattered Clouds
5:55 PM 82.0 °F 88.4 °F 74.7 °F 78% 29.97 in 10.0 mi SE 6.9 mph - N/A   Partly Cloudy
6:55 PM 80.4 °F 85.3 °F 73.9 °F 81% 29.97 in 10.0 mi SE 5.8 mph - N/A   Clear
7:55 PM 79.9 °F - 74.7 °F 84% 29.98 in 10.0 mi SE 4.6 mph - N/A   Clear
8:55 PM 80.2 °F 85.2 °F 74.7 °F 83% 29.99 in 10.0 mi SE 4.6 mph - N/A   Scattered Clouds
9:55 PM 80.2 °F 85.2 °F 74.5 °F 83% 30.00 in 10.0 mi SE 6.9 mph - N/A   Clear
10:55 PM 80.2 °F 85.2 °F 74.5 °F 83% 30.00 in 10.0 mi SE 6.9 mph - N/A   Scattered Clouds
10:56 PM 80.6 °F 86.2 °F 75.2 °F 84% 30.00 in 10.0 mi SE 6.9 mph - N/A   Mostly Cloudy
11:11 PM 80.6 °F 86.2 °F 75.2 °F 84% 30.00 in 10.0 mi SE 8.1 mph - N/A   Scattered Clouds
11:55 PM 80.1 °F 84.6 °F 74.3 °F 82% 29.99 in 10.0 mi SE 8.1 mph - N/A   Partly Cloudy